User: anonymous   Login
Location: Unspecified
(0.0000°N, 0.0000°E)
Time: 17:23:59
(UTC+00:00)
Language:

Tiros 1 despin weight - Orbit

View from above orbital plane
View from above orbital plane
View from above satellite
View from above satellite

Ground track
Ground track

The orbit data is extracted from the following two-line orbital elements,

1   115U 60002D   19265.79460963 -.00000051  00000-0  21114-4 0  9992
2   115  48.1660 126.0066 0034077 145.2603 215.0544 14.83477208173081
Epoch (UTC): 22 September 2019 19:04:14
Eccentricity: 0.0034077
inclination: 48.1660°
perigee height: 594 km
apogee height: 642 km
right ascension of ascending node: 126.0066°
argument of perigee: 145.2603°
revolutions per day: 14.83477208
mean anomaly at epoch: 215.0544°
orbit number at epoch: 17308

The dashed part of the orbit path shows where the satellite is in the earth's shadow,  

DLR